EN

Hourly Weather Nytva

Today, 14 May, Friday

Time Temperature Precipitation Wind Pressure Humidity
00:00 +19°C° 0 mm 1 mps 756 mmHg 54%
01:00 +18°C° 0 mm 1 mps 756 mmHg 54%
02:00 +18°C° 0 mm 1 mps 756 mmHg 56%
03:00 +18°C° 0 mm 1 mps 756 mmHg 58%
04:00 +16°C° 0 mm 1 mps 756 mmHg 61%
05:00 +18°C° 0 mm 2 mps 756 mmHg 58%
06:00 +19°C° 0 mm 2 mps 756 mmHg 54%
07:00 +21°C° 0 mm 2 mps 756 mmHg 51%
08:00 +24°C° 0 mm 2 mps 756 mmHg 46%
09:00 +25°C° 0 mm 3 mps 756 mmHg 41%
10:00 +27°C° 0 mm 3 mps 756 mmHg 35%
11:00 +28°C° 0 mm 3 mps 756 mmHg 33%
12:00 +29°C° 0 mm 3 mps 755 mmHg 31%
13:00 +30°C° 0 mm 4 mps 755 mmHg 29%
14:00 +30°C° 0 mm 4 mps 755 mmHg 29%
15:00 +30°C° 0 mm 4 mps 755 mmHg 29%
16:00 +30°C° 0 mm 4 mps 754 mmHg 30%
17:00 +29°C° 0 mm 4 mps 754 mmHg 35%
18:00 +27°C° 0 mm 3 mps 754 mmHg 40%
19:00 +26°C° 0 mm 3 mps 753 mmHg 45%
20:00 +24°C° 0 mm 3 mps 753 mmHg 51%
21:00 +21°C° 0 mm 2 mps 753 mmHg 57%
22:00 +20°C° 0 mm 2 mps 753 mmHg 62%
23:00 +19°C° 0 mm 2 mps 753 mmHg 63%

Tomorrow, 15 May, Saturday

Time Temperature Precipitation Wind Pressure Humidity
00:00 +19°C° 0 mm 2 mps 753 mmHg 63%
01:00 +19°C° 0 mm 2 mps 753 mmHg 64%
02:00 +18°C° 0 mm 2 mps 752 mmHg 66%
03:00 +17°C° 0 mm 2 mps 752 mmHg 68%
04:00 +17°C° 0 mm 2 mps 752 mmHg 70%
05:00 +18°C° 0 mm 3 mps 752 mmHg 67%
06:00 +19°C° 0 mm 3 mps 752 mmHg 64%
07:00 +20°C° 0 mm 3 mps 753 mmHg 61%
08:00 +22°C° 0 mm 3 mps 753 mmHg 57%
09:00 +24°C° 0 mm 3 mps 753 mmHg 54%
10:00 +26°C° 0 mm 3 mps 753 mmHg 51%
11:00 +27°C° 0 mm 4 mps 753 mmHg 47%
12:00 +28°C° 0 mm 4 mps 753 mmHg 44%
13:00 +29°C° 0 mm 4 mps 752 mmHg 40%
14:00 +29°C° 0 mm 4 mps 752 mmHg 39%
15:00 +30°C° 0 mm 4 mps 752 mmHg 39%
16:00 +30°C° 0 mm 4 mps 752 mmHg 38%
17:00 +29°C° 0 mm 4 mps 751 mmHg 41%
18:00 +28°C° 0 mm 4 mps 751 mmHg 43%
19:00 +27°C° 0 mm 4 mps 751 mmHg 46%
20:00 +25°C° 0 mm 4 mps 751 mmHg 51%
21:00 +24°C° 0 mm 3 mps 751 mmHg 55%
22:00 +21°C° 0 mm 3 mps 751 mmHg 59%
23:00 +20°C° 0 mm 3 mps 751 mmHg 62%

Day after tomorrow, 16 May, Sunday

Time Temperature Precipitation Wind Pressure Humidity
00:00 +20°C° 0 mm 3 mps 751 mmHg 64%
01:00 +19°C° 0 mm 2 mps 751 mmHg 66%
02:00 +18°C° 0 mm 2 mps 751 mmHg 68%
03:00 +17°C° 0 mm 2 mps 751 mmHg 70%
04:00 +17°C° 0 mm 2 mps 751 mmHg 72%
05:00 +18°C° 0 mm 3 mps 752 mmHg 66%
06:00 +20°C° 0 mm 3 mps 752 mmHg 60%
07:00 +21°C° 0 mm 3 mps 752 mmHg 54%
08:00 +23°C° 0 mm 4 mps 752 mmHg 47%
09:00 +26°C° 0 mm 4 mps 752 mmHg 40%
10:00 +28°C° 0 mm 5 mps 752 mmHg 34%
11:00 +29°C° 0 mm 5 mps 752 mmHg 31%
12:00 +30°C° 0 mm 5 mps 751 mmHg 28%
13:00 +32°C° 0 mm 6 mps 751 mmHg 25%
14:00 +32°C° 0 mm 6 mps 751 mmHg 25%
15:00 +32°C° 0 mm 5 mps 751 mmHg 25%
16:00 +33°C° 0 mm 5 mps 751 mmHg 25%
17:00 +30°C° 0 mm 5 mps 750 mmHg 29%
18:00 +29°C° 0 mm 5 mps 750 mmHg 32%
19:00 +28°C° 0 mm 4 mps 750 mmHg 36%
20:00 +26°C° 0 mm 4 mps 750 mmHg 41%
21:00 +24°C° 0 mm 3 mps 750 mmHg 45%
22:00 +22°C° 0 mm 3 mps 750 mmHg 50%
23:00 +21°C° 0 mm 3 mps 750 mmHg 52%

17 May, Monday

Time Temperature Precipitation Wind Pressure Humidity
00:00 +20°C° 0 mm 3 mps 750 mmHg 55%
01:00 +19°C° 0 mm 2 mps 749 mmHg 57%
02:00 +18°C° 0.1 mm 2 mps 750 mmHg 62%
03:00 +18°C° 0.1 mm 2 mps 750 mmHg 67%
04:00 +17°C° 0.1 mm 2 mps 750 mmHg 73%
05:00 +18°C° 0 mm 2 mps 750 mmHg 70%
06:00 +19°C° 0 mm 2 mps 750 mmHg 68%
07:00 +21°C° 0 mm 3 mps 750 mmHg 65%
08:00 +22°C° 0 mm 3 mps 750 mmHg 58%
09:00 +25°C° 0 mm 4 mps 751 mmHg 51%
10:00 +26°C° 0 mm 4 mps 751 mmHg 44%
11:00 +27°C° 0 mm 5 mps 751 mmHg 42%
12:00 +28°C° 0 mm 5 mps 750 mmHg 39%
13:00 +28°C° 0 mm 5 mps 750 mmHg 37%
14:00 +28°C° 0 mm 5 mps 750 mmHg 36%
15:00 +28°C° 0 mm 5 mps 750 mmHg 35%
16:00 +29°C° 0 mm 5 mps 750 mmHg 34%
17:00 +27°C° 0 mm 4 mps 750 mmHg 38%
18:00 +26°C° 0 mm 4 mps 750 mmHg 42%
19:00 +25°C° 0 mm 3 mps 750 mmHg 46%
20:00 +23°C° 0 mm 2 mps 750 mmHg 52%
21:00 +20°C° 0 mm 2 mps 750 mmHg 58%
22:00 +20°C° 0 mm 1 mps 750 mmHg 64%
23:00 +18°C° 0 mm 2 mps 750 mmHg 67%

18 May, Tuesday

Time Temperature Precipitation Wind Pressure Humidity
00:00 +18°C° 0 mm 2 mps 750 mmHg 69%
01:00 +17°C° 0 mm 2 mps 750 mmHg 71%
02:00 +18°C° 0 mm 1 mps 750 mmHg 74%
03:00 +16°C° 0 mm 1 mps 750 mmHg 77%
04:00 +15°C° 0 mm 1 mps 751 mmHg 80%
05:00 +18°C° 0 mm 1 mps 751 mmHg 75%
06:00 +19°C° 0 mm 1 mps 751 mmHg 70%
07:00 +20°C° 0 mm 1 mps 751 mmHg 66%
08:00 +21°C° 0 mm 2 mps 751 mmHg 60%
09:00 +23°C° 0 mm 2 mps 751 mmHg 53%
10:00 +25°C° 0 mm 3 mps 751 mmHg 47%
11:00 +26°C° 0 mm 3 mps 751 mmHg 44%
12:00 +26°C° 0 mm 3 mps 751 mmHg 41%
13:00 +27°C° 0 mm 3 mps 751 mmHg 38%
14:00 +27°C° 0 mm 3 mps 751 mmHg 37%
15:00 +27°C° 0 mm 3 mps 751 mmHg 35%
16:00 +28°C° 0 mm 3 mps 751 mmHg 34%
17:00 +26°C° 0 mm 3 mps 751 mmHg 38%
18:00 +25°C° 0 mm 3 mps 751 mmHg 42%
19:00 +24°C° 0 mm 3 mps 751 mmHg 46%
20:00 +21°C° 0 mm 2 mps 752 mmHg 52%
21:00 +19°C° 0 mm 2 mps 752 mmHg 58%
22:00 +17°C° 0 mm 2 mps 753 mmHg 63%
23:00 +16°C° 0 mm 2 mps 753 mmHg 66%

19 May, Wednesday

Time Temperature Precipitation Wind Pressure Humidity
00:00 +16°C° 0 mm 1 mps 753 mmHg 70%
01:00 +15°C° 0 mm 1 mps 753 mmHg 73%
02:00 +14°C° 0 mm 1 mps 754 mmHg 75%
03:00 +14°C° 0 mm 1 mps 754 mmHg 76%
04:00 +13°C° 0 mm 1 mps 754 mmHg 78%
05:00 +15°C° 0 mm 2 mps 754 mmHg 74%
06:00 +16°C° 0 mm 2 mps 754 mmHg 70%
07:00 +17°C° 0 mm 3 mps 755 mmHg 66%
08:00 +19°C° 0 mm 3 mps 754 mmHg 59%
09:00 +21°C° 0 mm 3 mps 754 mmHg 52%
10:00 +24°C° 0 mm 2 mps 754 mmHg 45%
11:00 +26°C° 0 mm 2 mps 754 mmHg 42%
12:00 +27°C° 0 mm 2 mps 754 mmHg 39%
13:00 +28°C° 0 mm 2 mps 754 mmHg 37%
14:00 +29°C° 0 mm 2 mps 753 mmHg 36%
15:00 +29°C° 0 mm 3 mps 753 mmHg 35%
16:00 +30°C° 0 mm 3 mps 753 mmHg 34%
17:00 +29°C° 0 mm 3 mps 753 mmHg 39%
18:00 +28°C° 0 mm 2 mps 752 mmHg 44%
19:00 +27°C° 0 mm 2 mps 752 mmHg 49%
20:00 +25°C° 0 mm 2 mps 752 mmHg 56%
21:00 +23°C° 0 mm 2 mps 752 mmHg 62%
22:00 +20°C° 0 mm 2 mps 752 mmHg 68%
23:00 +20°C° 0 mm 2 mps 752 mmHg 70%
Show more

We Need Your Consent

Meteoprog and our Service Providers may store and access personal data such as cookies, device identifiers or other similar technologies on your device and process such data to personalise content and ads, as well as provide social media features and to analyse the traffic.

  • Store and/or access information on your device

    Cookies, device identifiers or other information can be stored or accessed on your device for the purposes indicated above.

  • Personalised ads and content, ad and content measurement, audience insights, and products development

    Ads and content can be personalised based on a profile. More data can be added to better personalise ads and content. Ad and content performance can be measured. Insights about the audience who saw the ads and content can be derived. Such data can be used to develop or improve user’s experience, systems and software.

By clicking ‘I Agree’ you will allow the use of indicated cookies, device identifiers, web beacons or other similar technologies. Your settings can be changed in the browser on your device.

For certain purposes, legitimate interests may be relied on, rather than consent. You can read more about this in our Privacy and Cookie Policy.